Prescott, AZ

8:34 AM MST on November 17, 2019 (GMT -0700)
Love

Weather History for KPRC - August, 2019

Change the Weather History Date:

Friday, August 23, 2019

  Actual Average Record
Temperature  
Mean Temperature 78 °F 73 °F  
Max Temperature 90 °F 86 °F 98 °F (2011)
Min Temperature 66 °F 60 °F 37 °F (1968)
Degree Days  
Heating Degree Days 0    
Month to date heating degree days 0  
Since 1 July heating degree days 0  
Cooling Degree Days 13    
Month to date cooling degree days 291  
Year to date cooling degree days 859  
Growing Degree Days 28 (Base 50)    
Moisture  
Dew Point 43 °F    
Average Humidity 30    
Maximum Humidity 49    
Minimum Humidity 15    
Precipitation  
Precipitation 0.00 in 0.07 in 0.92 in (1992)
Month to date precipitation 0.30 2.01  
Year to date precipitation 8.11 9.05  
Sea Level Pressure  
Sea Level Pressure 29.83 in    
Wind  
Wind Speed 8 mph ()    
Max Wind Speed 20 mph    
Max Gust Speed 25 mph    
Visibility 10.0 miles    
Events      
T = Trace of Precipitation, MM = Missing Value Source: Averaged Metar Reports

Daily Weather History Graph

Daily Weather History Graph

Search for Another Location

Airport or City:

Astronomy

Aug. 23, 2019 Rise Set
Actual Time 5:56 AM MST 7:07 PM MST
Civil Twilight 5:29 AM MST 7:34 PM MST
Nautical Twilight 4:58 AM MST 8:05 PM MST
Astronomical Twilight 4:26 AM MST 8:37 PM MST
Moon 11:57 PM MST (8/23) 1:18 PM MST (8/23)
Length of Visible Light 14h 04m
Length of Day
13h 11m
Waning Gibbous, 48% of the Moon is Illuminated
Aug 23
Waning Gibbous
Aug 30
New
Sep 5
First Quarter
Sep 13
Full
Sep 21
Last Quarter

Hourly Weather History & Observations

Time (MST) Temp. Dew Point Humidity Pressure Visibility Wind Dir Wind Speed Gust Speed Precip Events Conditions
12:53 AM 72.0 °F 43.0 °F 35% 29.76 in 10.0 mi SSW 9.2 mph - N/A   Smoke
1:53 AM 71.1 °F 43.0 °F 36% 29.77 in 10.0 mi South 10.4 mph - N/A   Smoke
2:53 AM 71.1 °F 43.0 °F 36% 29.79 in 10.0 mi SSW 12.7 mph - N/A   Smoke
3:53 AM 69.1 °F 39.9 °F 35% 29.81 in 10.0 mi SSW 11.5 mph - N/A   Smoke
4:53 AM 68.0 °F 43.0 °F 40% 29.83 in 10.0 mi SSW 9.2 mph - N/A   Smoke
5:53 AM 66.9 °F 46.0 °F 47% 29.83 in 10.0 mi SSW 12.7 mph - N/A   Smoke
6:53 AM 68.0 °F 48.0 °F 49% 29.86 in 10.0 mi ENE 5.8 mph - N/A   Smoke
7:53 AM 73.0 °F 48.9 °F 42% 29.87 in 10.0 mi SSE 8.1 mph - N/A   Clear
8:53 AM 79.0 °F 43.0 °F 28% 29.88 in 10.0 mi South 8.1 mph - N/A   Clear
9:53 AM 81.0 °F 39.9 °F 23% 29.89 in 10.0 mi SW 8.1 mph - N/A   Clear
10:53 AM 82.9 °F 45.0 °F 26% 29.88 in 10.0 mi SSW 8.1 mph - N/A   Clear
11:53 AM 84.0 °F 46.9 °F 27% 29.86 in 10.0 mi Variable 3.5 mph 19.6 mph N/A   Clear
12:53 PM 88.0 °F 39.9 °F 18% 29.83 in 10.0 mi SW 13.8 mph 25.3 mph N/A   Partly Cloudy
1:53 PM 89.1 °F 35.1 °F 15% 29.82 in 10.0 mi SSW 9.2 mph - N/A   Clear
2:53 PM 89.1 °F 37.9 °F 16% 29.80 in 10.0 mi West 11.5 mph 17.3 mph N/A   Partly Cloudy
3:53 PM 87.1 °F 41.0 °F 20% 29.80 in 10.0 mi West 5.8 mph 20.7 mph N/A   Partly Cloudy
4:53 PM 88.0 °F 41.0 °F 19% 29.79 in 10.0 mi West 11.5 mph - N/A   Partly Cloudy
5:53 PM 86.0 °F 39.0 °F 19% 29.80 in 10.0 mi West 12.7 mph - N/A   Clear
6:53 PM 82.9 °F 39.0 °F 21% 29.81 in 10.0 mi WSW 8.1 mph - N/A   Clear
7:53 PM 79.0 °F 41.0 °F 26% 29.83 in 10.0 mi SW 6.9 mph - N/A   Clear
8:53 PM 75.0 °F 44.1 °F 33% 29.86 in 10.0 mi SSW 6.9 mph - N/A   Clear
9:53 PM 73.0 °F 45.0 °F 37% 29.87 in 10.0 mi SSW 6.9 mph - N/A   Clear
10:53 PM 72.0 °F 46.0 °F 40% 29.88 in 10.0 mi SSW 9.2 mph - N/A   Clear
11:53 PM 70.0 °F 46.9 °F 44% 29.89 in 10.0 mi SSW 6.9 mph - N/A   Clear